Location: ???????
(55.5931°N, 39.3286°E)
Time: 02:48:58
(UTC+00:00)

Cosmos 44 Rocket - Pass Details

Date: 14 April 2024
Orbit: 641 x 743 km, 65.1° (Epoch: 18 May)

Event Time Altitude Azimuth Distance (km) Brightness Sun altitude
Exits shadow 00:10:13 27° 216° (SW) 1,402 4.3 -16.2°
Maximum altitude 00:13:04 78° 134° (SE) 764 3.4 -15.9°
Drops below altitude 10° 00:18:13 10° 49° (NE) 2,244 7.3 -15.4°
Sets 00:20:35 0° 48° (NE) 3,158 8.6 -15.2°
